Location: Dannhausen
(51.8650°N, 10.1026°E)
Time: 15:59:04
(UTC+00:00)

Thor Agena Rocket - Pass Details

Date: 09 April 2020
Orbit: 760 x 807 km, 99.0° (Epoch: 02 June)

Event Time Altitude Azimuth Distance (km) Brightness Sun altitude
Rises 21:29:55 0° 19° (NNE) 3,243 7.3 -25.6°
Reaches altitude 10° 21:32:18 10° 25° (NNE) 2,316 6.4 -25.8°
Enters shadow 21:36:21 44° 68° (ENE) 1,055 4.1 -26.1°
